Location: Zagreb
(45.8000°N, 16.0000°E)
Time: 23:53:11
(UTC+02:00)

Transit 2A Rocket - Visible Passes

Search period start: 11 August 2020 00:00
Search period end: 21 August 2020 00:00
Orbit: 584 x 919 km, 66.7° (Epoch: 11 August)

Date Brightness Start Highest point End Pass type
(mag) Time Alt. Az. Time Alt. Az. Time Alt. Az.
11 Aug 7.8 03:56:08 10° ESE 03:58:16 12° E 04:00:27 10° ENE visible
12 Aug 6.3 04:51:52 10° S 04:57:20 45° ESE 05:03:06 10° NE visible
13 Aug 6.9 04:10:09 10° SSE 04:15:00 28° ESE 04:20:06 10° NE visible
14 Aug 7.5 03:29:08 10° SE 03:32:49 17° ESE 03:36:38 10° ENE visible
14 Aug 5.4 05:08:47 10° SSW 05:14:38 87° WNW 05:20:49 10° NNE visible
15 Aug 5.7 04:27:00 13° SSW 04:32:06 62° ESE 04:38:09 10° NE visible
16 Aug 6.4 03:45:58 18° S 03:49:42 39° ESE 03:55:18 10° NE visible
16 Aug 5.9 05:26:39 10° WSW 05:32:18 45° NW 05:38:12 10° NNE visible
17 Aug 7.0 03:04:52 18° SE 03:07:25 24° ESE 03:12:10 10° NE visible
17 Aug 5.4 04:44:47 16° SW 04:49:33 67° NW 04:55:42 10° NNE visible
18 Aug 7.4 02:23:44 13° ESE 02:25:15 15° ESE 02:28:24 10° ENE visible
18 Aug 5.3 04:03:39 28° SSW 04:06:56 82° ESE 04:13:06 10° NE visible
19 Aug 5.8 03:22:27 37° SSE 03:24:26 53° ESE 03:30:22 10° NE visible
19 Aug 6.3 05:02:22 12° WSW 05:07:21 36° NW 05:12:59 10° NNE visible
20 Aug 6.3 02:41:13 32° SE 02:42:04 33° ESE 02:47:27 10° NE visible
20 Aug 5.7 04:21:08 25° WSW 04:24:31 52° NW 04:30:32 10° NNE visible
